Regional Weather Roundup
Issued by NWS

Home | Current Version | Previous Version | Text Only | Print | Product List | Glossary On
Versions: 1 2 3 4 5 6 7 8 9 10 11 12 13 14 15 16 17 18 19 20 21 22 23 24 25 26 27 28 29 30 31 32 33 34 35 36 37 38 39 40 41 42 43 44 45 46 47 48 49 50
000
ASUS44 KMEG 241210
RWRTN
TENNESSEE HOURLY STATE WEATHER ROUNDUP
NATIONAL WEATHER SERVICE MEMPHIS TN
600 AM CST MON NOV 24 2014

TNZ002-004-019-021-049-052-054-088>092-241300-
WEST TENNESSEE

CITY           SKY/WX    TMP DP  RH WIND       PRES   REMARKS
MEMPHIS INTL   PTCLDY    50  44  80 W16G24    29.70R
NWS MEMPHIS      N/A     49 N/A N/A MISG        N/A
JACKSON        CLOUDY    50  45  81 W20G32    29.64R
DYERSBURG      CLOUDY    48  36  61 W17G29    29.63R
PARIS          CLOUDY    50  45  81 W24G35    29.55R
HUNTINGDON     CLOUDY    49  44  83 W17       29.59R
LEXINGTON      CLOUDY    57  48  72 SW17      29.56R
SAVANNAH       CLOUDY    57  48  72 SW16G26   29.62R
$$

TNZ008-025-027-028-033-062-065-066-241300-
NORTH MIDDLE TENNESSEE

CITY           SKY/WX    TMP DP  RH WIND       PRES   REMARKS
NASHVILLE      PTCLDY    62  52  69 SW15G26   29.53R
CLARKSVILLE    MOCLDY    61  49  64 SW16G40   29.47R
SMYRNA         PTCLDY    62  54  75 SW14G22   29.56R
COOKEVILLE     CLEAR     61  54  77 SW17G28   29.56R
CROSSVILLE     PTCLDY    59  52  77 S13G28    29.60S
$$

TNZ061-075-076-078-094-096-097-241300-
SOUTH MIDDLE TENNESSEE

CITY           SKY/WX    TMP DP  RH WIND       PRES   REMARKS
FAYETTEVILLE   PTCLDY    59  54  82 MISG      29.63R
TULLAHOMA      MOCLDY    61  54  77 SW20      29.61R
WINCHESTER     CLEAR     61  54  77 SW15      29.63R
MCMINNVILLE    PTCLDY    61  55  82 SW10      29.59R
COLUMBIA       MOCLDY    61  57  88 SW18      29.57R
SHELBYVILLE    CLOUDY    63  55  77 SW22G39   29.60R
$$

TNZ017-018-042-046-047-241300-
NORTHEAST TENNESSEE

CITY           SKY/WX    TMP DP  RH WIND       PRES   REMARKS
TRI CITIES     PTCLDY    45  44  97 SW5       29.67R
ELIZABETHTON   SUNNY     43  43 100 CALM      29.67R
$$

TNZ012-013-036-069-073-074-241300-
CENTRAL EAST TENNESSEE

CITY           SKY/WX    TMP DP  RH WIND       PRES   REMARKS
KNOXVILLE      PTCLDY    61  51  70 S22G28    29.64S
OAK RIDGE      MOCLDY    62  54  74 S10G21    29.65R
GATLINBURG     MOSUNNY   63  45  51 SW9       29.65R
MORRISTOWN     MOSUNNY   61  48  63 SW16      29.65R
$$

TNZ083-085-099-241300-
SOUTHEAST TENNESSEE

CITY           SKY/WX    TMP DP  RH WIND       PRES   REMARKS
CHATTANOOGA    MOCLDY    61  56  83 S10       29.66S
$$

SKY/WX REPORTED AS FAIR MEANS FEW OR NO CLOUDS BELOW
12 THOUSAND FEET.



USA.gov is the U.S. government's official web portal to all federal, state and local government web resources and services.